Time,TemperatureF,DewpointF,PressureIn,WindDirection,WindDirectionDegrees,WindSpeedMPH,WindSpeedGustMPH,Humidity,HourlyPrecipIn,Conditions,Clouds,dailyrainin,SolarRadiationWatts/m^2,SoftwareType,DateUTC
2013-01-10 00:01:00,40.0,37.0,-100.00,NE,35,2.0,9.0,91,-99.99,,,0.02,0.000000,,2013-01-10 08:01:00,
2013-01-10 00:11:00,40.0,37.0,-100.00,NE,35,2.0,9.0,91,-99.99,,,0.02,0.000000,,2013-01-10 08:11:00,
2013-01-10 00:42:00,38.0,36.0,-100.00,SSE,167,1.0,4.0,94,-99.99,,,0.03,0.000000,,2013-01-10 08:42:00,
2013-01-10 00:53:00,38.0,36.0,-100.00,SSE,167,1.0,4.0,94,-99.99,,,0.03,0.000000,,2013-01-10 08:53:00,
2013-01-10 01:02:00,38.0,36.0,-100.00,SSE,167,1.0,4.0,94,-99.99,,,0.03,0.000000,,2013-01-10 09:02:00,
2013-01-10 01:12:00,38.0,36.0,-100.00,SSE,167,1.0,4.0,94,-99.99,,,0.03,0.000000,,2013-01-10 09:12:00,
2013-01-10 01:42:00,38.0,37.0,-100.00,WSW,255,2.0,8.0,95,-99.99,,,0.03,0.000000,,2013-01-10 09:42:00,
2013-01-10 01:52:00,38.0,37.0,-100.00,WSW,255,2.0,8.0,95,-99.99,,,0.03,0.000000,,2013-01-10 09:52:00,
2013-01-10 02:02:00,38.0,37.0,-100.00,WSW,255,2.0,8.0,95,-99.99,,,0.03,0.000000,,2013-01-10 10:02:00,
2013-01-10 02:11:00,38.0,37.0,-100.00,WSW,255,2.0,8.0,95,-99.99,,,0.03,0.000000,,2013-01-10 10:11:00,
2013-01-10 02:42:00,38.0,37.0,-100.00,South,169,1.0,3.0,96,-99.99,,,0.03,0.000000,,2013-01-10 10:42:00,
2013-01-10 02:52:00,38.0,37.0,-100.00,South,169,1.0,3.0,96,-99.99,,,0.03,0.000000,,2013-01-10 10:52:00,
2013-01-10 03:02:00,38.0,37.0,-100.00,South,169,1.0,3.0,96,-99.99,,,0.03,0.000000,,2013-01-10 11:02:00,
2013-01-10 03:12:00,38.0,37.0,-100.00,South,169,1.0,3.0,96,-99.99,,,0.03,0.000000,,2013-01-10 11:12:00,
2013-01-10 03:42:00,38.0,37.0,-100.00,East,83,2.0,4.0,96,-99.99,,,0.03,0.000000,,2013-01-10 11:42:00,
2013-01-10 03:53:00,38.0,37.0,-100.00,East,83,2.0,4.0,96,-99.99,,,0.03,0.000000,,2013-01-10 11:53:00,
2013-01-10 04:02:00,38.0,37.0,-100.00,East,83,2.0,4.0,96,-99.99,,,0.03,0.000000,,2013-01-10 12:02:00,
2013-01-10 04:12:00,38.0,37.0,-100.00,East,83,2.0,4.0,96,-99.99,,,0.03,0.000000,,2013-01-10 12:12:00,
2013-01-10 04:42:00,37.0,36.0,-100.00,ESE,105,2.0,4.0,96,-99.99,,,0.03,0.000000,,2013-01-10 12:42:00,
2013-01-10 04:53:00,37.0,36.0,-100.00,ESE,105,2.0,4.0,96,-99.99,,,0.03,0.000000,,2013-01-10 12:53:00,
2013-01-10 05:02:00,37.0,36.0,-100.00,ESE,105,2.0,4.0,96,-99.99,,,0.03,0.000000,,2013-01-10 13:02:00,
2013-01-10 05:11:00,37.0,36.0,-100.00,ESE,105,2.0,4.0,96,-99.99,,,0.03,0.000000,,2013-01-10 13:11:00,
2013-01-10 05:42:00,37.0,36.0,-100.00,SE,130,1.0,3.0,96,-99.99,,,0.03,0.000000,,2013-01-10 13:42:00,
2013-01-10 05:53:00,37.0,36.0,-100.00,SE,130,1.0,3.0,96,-99.99,,,0.03,0.000000,,2013-01-10 13:53:00,
2013-01-10 06:02:00,37.0,36.0,-100.00,SE,130,1.0,3.0,96,-99.99,,,0.03,0.000000,,2013-01-10 14:02:00,
2013-01-10 06:12:00,37.0,36.0,-100.00,SE,130,1.0,3.0,96,-99.99,,,0.03,0.000000,,2013-01-10 14:12:00,
2013-01-10 06:43:00,37.0,36.0,-100.00,SE,144,1.0,5.0,96,-99.99,,,0.03,0.000000,,2013-01-10 14:43:00,
2013-01-10 06:53:00,37.0,36.0,-100.00,SE,144,1.0,5.0,96,-99.99,,,0.03,0.000000,,2013-01-10 14:53:00,
2013-01-10 07:03:00,37.0,36.0,-100.00,SE,144,1.0,5.0,96,-99.99,,,0.03,0.000000,,2013-01-10 15:03:00,
2013-01-10 07:12:00,37.0,36.0,-100.00,SE,144,1.0,5.0,96,-99.99,,,0.03,0.000000,,2013-01-10 15:12:00,
2013-01-10 07:43:00,37.0,36.0,-100.00,SE,127,2.0,4.0,97,-99.99,,,0.02,0.000000,,2013-01-10 15:43:00,
2013-01-10 07:53:00,37.0,36.0,-100.00,SE,127,2.0,4.0,97,-99.99,,,0.02,0.000000,,2013-01-10 15:53:00,
2013-01-10 08:02:00,37.0,36.0,-100.00,SE,127,2.0,4.0,97,-99.99,,,0.02,0.000000,,2013-01-10 16:02:00,
2013-01-10 08:12:00,37.0,36.0,-100.00,SE,127,2.0,4.0,97,-99.99,,,0.02,0.000000,,2013-01-10 16:12:00,
2013-01-10 08:43:00,37.0,37.0,-100.00,SSE,168,1.0,3.0,97,-99.99,,,0.02,9.650000,,2013-01-10 16:43:00,
2013-01-10 08:53:00,37.0,37.0,-100.00,SSE,168,1.0,3.0,97,-99.99,,,0.02,9.650000,,2013-01-10 16:53:00,
2013-01-10 09:02:00,37.0,37.0,-100.00,SSE,168,1.0,3.0,97,-99.99,,,0.02,9.650000,,2013-01-10 17:02:00,
2013-01-10 09:12:00,37.0,37.0,-100.00,SSE,168,1.0,3.0,97,-99.99,,,0.02,9.650000,,2013-01-10 17:12:00,
2013-01-10 09:42:00,38.0,37.0,-100.00,SSE,161,1.0,4.0,97,-99.99,,,0.02,62.060001,,2013-01-10 17:42:00,
2013-01-10 09:53:00,38.0,37.0,-100.00,SSE,161,1.0,4.0,97,-99.99,,,0.02,62.060001,,2013-01-10 17:53:00,
2013-01-10 10:03:00,38.0,37.0,-100.00,SSE,161,1.0,4.0,97,-99.99,,,0.02,62.060001,,2013-01-10 18:03:00,
2013-01-10 10:12:00,38.0,37.0,-100.00,SSE,161,1.0,4.0,97,-99.99,,,0.02,62.060001,,2013-01-10 18:12:00,
2013-01-10 10:43:00,40.0,39.0,-100.00,SSE,150,2.0,5.0,97,-99.99,,,0.02,78.800003,,2013-01-10 18:43:00,
2013-01-10 10:53:00,40.0,39.0,-100.00,SSE,150,2.0,5.0,97,-99.99,,,0.02,78.800003,,2013-01-10 18:53:00,
2013-01-10 11:02:00,40.0,39.0,-100.00,SSE,150,2.0,5.0,97,-99.99,,,0.02,78.800003,,2013-01-10 19:02:00,
2013-01-10 11:12:00,40.0,39.0,-100.00,SSE,150,2.0,5.0,97,-99.99,,,0.02,78.800003,,2013-01-10 19:12:00,
2013-01-10 11:43:00,43.0,42.0,-100.00,ESE,114,3.0,5.0,94,-99.99,,,0.02,293.339996,,2013-01-10 19:43:00,
2013-01-10 11:53:00,43.0,42.0,-100.00,ESE,114,3.0,5.0,94,-99.99,,,0.02,293.339996,,2013-01-10 19:53:00,
2013-01-10 12:02:00,43.0,42.0,-100.00,ESE,114,3.0,5.0,94,-99.99,,,0.02,293.339996,,2013-01-10 20:02:00,
2013-01-10 12:12:00,43.0,42.0,-100.00,ESE,114,3.0,5.0,94,-99.99,,,0.02,293.339996,,2013-01-10 20:12:00,
2013-01-10 12:42:00,43.0,41.0,-100.00,WSW,244,2.0,7.0,91,-99.99,,,0.02,75.190002,,2013-01-10 20:42:00,
2013-01-10 12:53:00,43.0,41.0,-100.00,WSW,244,2.0,7.0,91,-99.99,,,0.02,75.190002,,2013-01-10 20:53:00,
2013-01-10 13:03:00,43.0,41.0,-100.00,WSW,244,2.0,7.0,91,-99.99,,,0.02,75.190002,,2013-01-10 21:03:00,
2013-01-10 13:12:00,43.0,41.0,-100.00,WSW,244,2.0,7.0,91,-99.99,,,0.02,75.190002,,2013-01-10 21:12:00,
2013-01-10 13:33:00,46.0,39.0,-100.00,NW,314,5.0,15.0,77,-99.99,,,0.02,139.229996,,2013-01-10 21:33:00,
2013-01-10 13:42:00,46.0,39.0,-100.00,NW,314,5.0,15.0,77,-99.99,,,0.02,139.229996,,2013-01-10 21:42:00,
2013-01-10 13:53:00,46.0,39.0,-100.00,NW,314,5.0,15.0,77,-99.99,,,0.02,139.229996,,2013-01-10 21:53:00,
2013-01-10 14:03:00,46.0,39.0,-100.00,NW,314,5.0,15.0,77,-99.99,,,0.02,139.229996,,2013-01-10 22:03:00,
2013-01-10 14:12:00,46.0,39.0,-100.00,NW,314,5.0,15.0,77,-99.99,,,0.02,139.229996,,2013-01-10 22:12:00,
2013-01-10 14:43:00,46.0,38.0,-100.00,NNW,336,9.0,22.0,73,-99.99,,,0.02,154.339996,,2013-01-10 22:43:00,
2013-01-10 15:02:00,46.0,38.0,-100.00,NNW,336,9.0,22.0,73,-99.99,,,0.02,154.339996,,2013-01-10 23:02:00,
2013-01-10 15:12:00,46.0,38.0,-100.00,NNW,336,9.0,22.0,73,-99.99,,,0.02,154.339996,,2013-01-10 23:12:00,
2013-01-10 15:42:00,47.0,39.0,-100.00,NNW,339,8.0,18.0,73,-99.99,,,0.02,267.420013,,2013-01-10 23:42:00,
2013-01-10 15:53:00,47.0,39.0,-100.00,NNW,339,8.0,18.0,73,-99.99,,,0.02,267.420013,,2013-01-10 23:53:00,
2013-01-10 16:02:00,47.0,39.0,-100.00,NNW,339,8.0,18.0,73,-99.99,,,0.02,267.420013,,2013-01-11 00:02:00,
2013-01-10 16:12:00,47.0,39.0,-100.00,NNW,339,8.0,18.0,73,-99.99,,,0.02,267.420013,,2013-01-11 00:12:00,
2013-01-10 16:42:00,45.0,37.0,-100.00,NW,324,7.0,22.0,71,-99.99,,,0.02,37.310001,,2013-01-11 00:42:00,
2013-01-10 16:53:00,45.0,37.0,-100.00,NW,324,7.0,22.0,71,-99.99,,,0.02,37.310001,,2013-01-11 00:53:00,
2013-01-10 17:02:00,45.0,37.0,-100.00,NW,324,7.0,22.0,71,-99.99,,,0.02,37.310001,,2013-01-11 01:02:00,
2013-01-10 17:12:00,45.0,37.0,-100.00,NW,324,7.0,22.0,71,-99.99,,,0.02,37.310001,,2013-01-11 01:12:00,
2013-01-10 17:43:00,45.0,37.0,-100.00,NNW,342,9.0,20.0,73,-99.99,,,0.02,1.980000,,2013-01-11 01:43:00,
2013-01-10 17:53:00,45.0,37.0,-100.00,NNW,342,9.0,20.0,73,-99.99,,,0.02,1.980000,,2013-01-11 01:53:00,
2013-01-10 18:02:00,45.0,37.0,-100.00,NNW,342,9.0,20.0,73,-99.99,,,0.02,1.980000,,2013-01-11 02:02:00,
2013-01-10 18:12:00,45.0,37.0,-100.00,NNW,342,9.0,20.0,73,-99.99,,,0.02,1.980000,,2013-01-11 02:12:00,
2013-01-10 18:43:00,45.0,35.0,-100.00,NNW,336,12.0,27.0,68,-99.99,,,0.01,0.000000,,2013-01-11 02:43:00,
2013-01-10 18:54:00,45.0,35.0,-100.00,NNW,336,12.0,27.0,68,-99.99,,,0.01,0.000000,,2013-01-11 02:54:00,
2013-01-10 19:02:00,45.0,35.0,-100.00,NNW,336,12.0,27.0,68,-99.99,,,0.01,0.000000,,2013-01-11 03:02:00,
2013-01-10 19:12:00,45.0,35.0,-100.00,NNW,336,12.0,27.0,68,-99.99,,,0.01,0.000000,,2013-01-11 03:12:00,
2013-01-10 19:33:00,46.0,35.0,-100.00,NNW,334,8.0,21.0,67,-99.99,,,0.01,0.000000,,2013-01-11 03:33:00,
2013-01-10 19:42:00,46.0,35.0,-100.00,NNW,334,8.0,21.0,67,-99.99,,,0.01,0.000000,,2013-01-11 03:42:00,
2013-01-10 19:53:00,46.0,35.0,-100.00,NNW,334,8.0,21.0,67,-99.99,,,0.01,0.000000,,2013-01-11 03:53:00,
2013-01-10 20:02:00,46.0,35.0,-100.00,NNW,334,8.0,21.0,67,-99.99,,,0.01,0.000000,,2013-01-11 04:02:00,
2013-01-10 20:12:00,46.0,35.0,-100.00,NNW,334,8.0,21.0,67,-99.99,,,0.01,0.000000,,2013-01-11 04:12:00,
2013-01-10 20:33:00,45.0,36.0,-100.00,NNW,346,9.0,19.0,71,-99.99,,,0.01,0.000000,,2013-01-11 04:33:00,
2013-01-10 20:42:00,45.0,36.0,-100.00,NNW,346,9.0,19.0,71,-99.99,,,0.01,0.000000,,2013-01-11 04:42:00,
2013-01-10 20:53:00,45.0,36.0,-100.00,NNW,346,9.0,19.0,71,-99.99,,,0.01,0.000000,,2013-01-11 04:53:00,
2013-01-10 21:03:00,45.0,36.0,-100.00,NNW,346,9.0,19.0,71,-99.99,,,0.01,0.000000,,2013-01-11 05:03:00,
2013-01-10 21:12:00,45.0,36.0,-100.00,NNW,346,9.0,19.0,71,-99.99,,,0.01,0.000000,,2013-01-11 05:12:00,
2013-01-10 21:33:00,44.0,35.0,-100.00,North,351,6.0,18.0,70,-99.99,,,0.01,0.000000,,2013-01-11 05:33:00,
2013-01-10 21:42:00,44.0,35.0,-100.00,North,351,6.0,18.0,70,-99.99,,,0.01,0.000000,,2013-01-11 05:42:00,
2013-01-10 21:53:00,44.0,35.0,-100.00,North,351,6.0,18.0,70,-99.99,,,0.01,0.000000,,2013-01-11 05:53:00,
2013-01-10 22:02:00,44.0,35.0,-100.00,North,351,6.0,18.0,70,-99.99,,,0.01,0.000000,,2013-01-11 06:02:00,
2013-01-10 22:12:00,44.0,35.0,-100.00,North,351,6.0,18.0,70,-99.99,,,0.01,0.000000,,2013-01-11 06:12:00,
2013-01-10 22:42:00,45.0,35.0,-100.00,North,352,7.0,20.0,68,-99.99,,,0.01,0.000000,,2013-01-11 06:42:00,
2013-01-10 22:52:00,45.0,35.0,-100.00,North,352,7.0,20.0,68,-99.99,,,0.01,0.000000,,2013-01-11 06:52:00,
2013-01-10 23:02:00,45.0,35.0,-100.00,North,352,7.0,20.0,68,-99.99,,,0.01,0.000000,,2013-01-11 07:02:00,
2013-01-10 23:11:00,45.0,35.0,-100.00,North,352,7.0,20.0,68,-99.99,,,0.01,0.000000,,2013-01-11 07:11:00,
2013-01-10 23:42:00,45.0,34.0,-100.00,NNW,336,7.0,16.0,65,-99.99,,,0.01,0.000000,,2013-01-11 07:42:00,
2013-01-10 23:52:00,45.0,34.0,-100.00,NNW,336,7.0,16.0,65,-99.99,,,0.01,0.000000,,2013-01-11 07:52:00,